Bedminster, NJ

1:38 PM EST on December 10, 2016 (GMT -0500)
Somerset

Weather History for KSMQ - April, 2014

Change the Weather History Date:

Saturday, April 12, 2014

  Actual Average Record
Temperature  
Mean Temperature 58 °F -  
Max Temperature 73 °F 58 °F 78 °F (1947)
Min Temperature 42 °F 33 °F 25 °F (1952)
Degree Days  
Heating Degree Days 8    
Growing Degree Days 8 (Base 50)    
Moisture  
Dew Point 39 °F    
Average Humidity 58    
Maximum Humidity 93    
Minimum Humidity 20    
Precipitation  
Precipitation 0.00 in - - ()
Sea Level Pressure  
Sea Level Pressure 30.14 in    
Wind  
Wind Speed 3 mph (WNW)    
Max Wind Speed 12 mph    
Max Gust Speed 16 mph    
Visibility 9 miles    
Events      
Averages and records for this station are not official NWS values.
T = Trace of Precipitation, MM = Missing Value Source: NWS Daily Summary

Daily Weather History Graph

Daily Weather History Graph

Search for Another Location

Airport or City:

Trip Planner

Search our weather history database for the weather conditions in past years. The results will help you decide how hot, cold, wet, or windy it might be!

Date:

Astronomy

Apr. 12, 2014 Rise Set
Actual Time 6:24 AM EDT 7:34 PM EDT
Civil Twilight 5:56 AM EDT 8:03 PM EDT
Nautical Twilight 5:23 AM EDT 8:36 PM EDT
Astronomical Twilight 4:47 AM EDT 9:12 PM EDT
Moon 5:10 PM EDT (4/12) 4:50 AM EDT (4/12)
Length of Visible Light 14h 06m
Length of Day
13h 10m
Waxing Gibbous, 93% of the Moon is Illuminated
Apr 12
Waxing Gibbous
Apr 15
Full
Apr 22
Last Quarter
Apr 29
New
May 6
First Quarter

Hourly Weather History & Observations

Time (EDT) Temp. Dew Point Humidity Pressure Visibility Wind Dir Wind Speed Gust Speed Precip Events Conditions
12:19 AM 55.9 °F 52.0 °F 87% 30.01 in 10.0 mi North 4.6 mph - N/A   Overcast
12:31 AM 55.9 °F 51.1 °F 84% 30.01 in 10.0 mi North 4.6 mph - N/A   Overcast
12:53 AM 55.9 °F 48.9 °F 77% 30.02 in 10.0 mi North 3.5 mph - N/A   Mostly Cloudy
1:53 AM 51.1 °F 48.0 °F 89% 30.02 in 10.0 mi NW 4.6 mph - N/A   Partly Cloudy
2:53 AM 48.9 °F 46.0 °F 90% 30.04 in 10.0 mi Calm Calm - N/A   Mostly Cloudy
3:53 AM 48.0 °F 46.0 °F 93% 30.07 in 10.0 mi Calm Calm - N/A   Clear
4:43 AM 44.1 °F 42.1 °F 93% 30.10 in 1.8 mi Calm Calm - N/A   Clear
4:53 AM 46.0 °F 43.0 °F 89% 30.10 in 2.5 mi Calm Calm - N/A   Clear
5:00 AM 45.0 °F 43.0 °F 93% 30.11 in 10.0 mi Calm Calm - N/A   Clear
5:53 AM 44.1 °F 42.1 °F 93% 30.13 in 10.0 mi Calm Calm - N/A   Clear
6:53 AM 42.1 °F 39.9 °F 92% 30.16 in 9.0 mi Calm Calm - N/A   Clear
7:53 AM 50.0 °F 44.1 °F 80% 30.22 in 10.0 mi Calm Calm - N/A   Clear
8:53 AM 54.0 °F 43.0 °F 66% 30.22 in 10.0 mi NW 5.8 mph - N/A   Clear
9:53 AM 57.9 °F 43.0 °F 58% 30.22 in 10.0 mi Calm Calm - N/A   Clear
10:53 AM 63.0 °F 37.9 °F 40% 30.22 in 10.0 mi NNE 4.6 mph - N/A   Clear
11:53 AM 66.0 °F 33.1 °F 29% 30.21 in 10.0 mi Calm Calm - N/A   Clear
12:53 PM 69.1 °F 34.0 °F 27% 30.19 in 10.0 mi Variable 3.5 mph - N/A   Clear
1:53 PM 72.0 °F 28.9 °F 20% 30.17 in 10.0 mi WNW 11.5 mph 16.1 mph N/A   Clear
2:53 PM 72.0 °F 32.0 °F 23% 30.15 in 10.0 mi Variable 3.5 mph - N/A   Clear
3:53 PM 72.0 °F 32.0 °F 23% 30.13 in 10.0 mi West 8.1 mph - N/A   Clear
4:53 PM 73.0 °F 32.0 °F 22% 30.13 in 10.0 mi NW 8.1 mph 16.1 mph N/A   Clear
5:53 PM 73.0 °F 30.9 °F 21% 30.13 in 10.0 mi Calm Calm - N/A   Clear
6:53 PM 69.1 °F 33.1 °F 26% 30.14 in 10.0 mi SSW 3.5 mph - N/A   Clear
7:53 PM 63.0 °F 36.0 °F 37% 30.15 in 10.0 mi South 3.5 mph - N/A   Clear
8:53 PM 61.0 °F 37.9 °F 42% 30.18 in 10.0 mi SSE 6.9 mph - N/A   Clear
9:53 PM 57.0 °F 35.1 °F 44% 30.19 in 10.0 mi South 5.8 mph - N/A   Clear
10:53 PM 55.0 °F 34.0 °F 45% 30.19 in 10.0 mi SSE 3.5 mph - N/A   Clear
11:53 PM 52.0 °F 34.0 °F 50% 30.18 in 10.0 mi SSE 3.5 mph - N/A   Clear